Previsão horária em Julianowo

Hoje, 19 Junho, Sábado

Tempo Temperatura Precipitação Vento Pressão Humidade
00:00 +19°C° 0 mm 3 m/s 754 mmHg 84%
01:00 +19°C° 0 mm 3 m/s 754 mmHg 86%
02:00 +18°C° 0 mm 3 m/s 754 mmHg 86%
03:00 +18°C° 0 mm 3 m/s 754 mmHg 87%
04:00 +18°C° 0 mm 3 m/s 754 mmHg 88%
05:00 +20°C° 0 mm 3 m/s 754 mmHg 82%
06:00 +22°C° 0 mm 3 m/s 754 mmHg 77%
07:00 +24°C° 0 mm 3 m/s 754 mmHg 71%
08:00 +26°C° 0 mm 4 m/s 754 mmHg 65%
09:00 +27°C° 0 mm 4 m/s 754 mmHg 60%
10:00 +28°C° 0 mm 5 m/s 753 mmHg 54%
11:00 +29°C° 0 mm 4 m/s 753 mmHg 52%
12:00 +29°C° 0 mm 4 m/s 753 mmHg 50%
13:00 +30°C° 0 mm 4 m/s 753 mmHg 48%
14:00 +30°C° 0 mm 4 m/s 752 mmHg 49%
15:00 +30°C° 0 mm 3 m/s 752 mmHg 49%
16:00 +31°C° 0 mm 3 m/s 752 mmHg 50%
17:00 +29°C° 0 mm 3 m/s 752 mmHg 57%
18:00 +28°C° 0 mm 3 m/s 751 mmHg 64%
19:00 +26°C° 0 mm 3 m/s 751 mmHg 71%
20:00 +25°C° 0 mm 3 m/s 751 mmHg 74%
21:00 +24°C° 0 mm 3 m/s 752 mmHg 77%
22:00 +22°C° 0 mm 3 m/s 752 mmHg 80%
23:00 +22°C° 0 mm 3 m/s 752 mmHg 79%

Amanhã, 20 Junho, Domingo

Tempo Temperatura Precipitação Vento Pressão Humidade
00:00 +22°C° 0 mm 3 m/s 752 mmHg 78%
01:00 +22°C° 0 mm 3 m/s 752 mmHg 77%
02:00 +21°C° 0 mm 3 m/s 752 mmHg 81%
03:00 +20°C° 0 mm 3 m/s 752 mmHg 85%
04:00 +20°C° 0 mm 3 m/s 751 mmHg 89%
05:00 +21°C° 0 mm 3 m/s 751 mmHg 84%
06:00 +22°C° 0 mm 4 m/s 751 mmHg 80%
07:00 +23°C° 0 mm 4 m/s 751 mmHg 76%
08:00 +25°C° 0 mm 4 m/s 751 mmHg 70%
09:00 +26°C° 0 mm 4 m/s 752 mmHg 64%
10:00 +28°C° 0 mm 4 m/s 752 mmHg 58%
11:00 +28°C° 0 mm 4 m/s 751 mmHg 55%
12:00 +29°C° 0 mm 5 m/s 751 mmHg 53%
13:00 +29°C° 0 mm 5 m/s 750 mmHg 50%
14:00 +30°C° 0 mm 5 m/s 750 mmHg 50%
15:00 +30°C° 0 mm 4 m/s 750 mmHg 50%
16:00 +30°C° 0 mm 4 m/s 750 mmHg 51%
17:00 +28°C° 0 mm 4 m/s 749 mmHg 58%
18:00 +27°C° 0 mm 3 m/s 749 mmHg 66%
19:00 +26°C° 0 mm 3 m/s 749 mmHg 73%
20:00 +25°C° 0 mm 3 m/s 749 mmHg 78%
21:00 +22°C° 0 mm 3 m/s 749 mmHg 83%
22:00 +21°C° 0 mm 3 m/s 749 mmHg 88%
23:00 +21°C° 0 mm 3 m/s 749 mmHg 90%

Depois de amanhã, 21 Junho, Segunda-feira

Tempo Temperatura Precipitação Vento Pressão Humidade
00:00 +20°C° 0 mm 3 m/s 749 mmHg 92%
01:00 +20°C° 0 mm 3 m/s 748 mmHg 95%
02:00 +20°C° 0 mm 3 m/s 748 mmHg 95%
03:00 +19°C° 0 mm 3 m/s 748 mmHg 95%
04:00 +19°C° 0 mm 3 m/s 748 mmHg 95%
05:00 +21°C° 0 mm 4 m/s 748 mmHg 88%
06:00 +22°C° 0 mm 4 m/s 748 mmHg 81%
07:00 +25°C° 0 mm 5 m/s 748 mmHg 75%
08:00 +26°C° 0 mm 5 m/s 748 mmHg 70%
09:00 +27°C° 0 mm 5 m/s 748 mmHg 64%
10:00 +28°C° 0 mm 5 m/s 748 mmHg 59%
11:00 +29°C° 0 mm 5 m/s 747 mmHg 57%
12:00 +29°C° 0 mm 5 m/s 747 mmHg 55%
13:00 +30°C° 0 mm 4 m/s 747 mmHg 53%
14:00 +29°C° 0.1 mm 5 m/s 747 mmHg 57%
15:00 +29°C° 0.1 mm 5 m/s 747 mmHg 61%
16:00 +28°C° 0.1 mm 5 m/s 747 mmHg 65%
17:00 +27°C° 0 mm 4 m/s 746 mmHg 69%
18:00 +26°C° 0 mm 4 m/s 746 mmHg 73%
19:00 +26°C° 0 mm 3 m/s 746 mmHg 77%
20:00 +24°C° 0.2 mm 3 m/s 746 mmHg 80%
21:00 +22°C° 0.2 mm 3 m/s 746 mmHg 84%
22:00 +21°C° 0.2 mm 3 m/s 747 mmHg 87%
23:00 +21°C° 0.2 mm 3 m/s 746 mmHg 89%

22 Junho, Terça-feira

Tempo Temperatura Precipitação Vento Pressão Humidade
00:00 +20°C° 0.2 mm 3 m/s 746 mmHg 91%
01:00 +20°C° 0.2 mm 2 m/s 746 mmHg 93%
02:00 +20°C° 0 mm 2 m/s 747 mmHg 93%
03:00 +20°C° 0 mm 2 m/s 747 mmHg 94%
04:00 +20°C° 0 mm 2 m/s 747 mmHg 95%
05:00 +21°C° 0 mm 2 m/s 747 mmHg 91%
06:00 +23°C° 0 mm 2 m/s 747 mmHg 87%
07:00 +24°C° 0 mm 2 m/s 748 mmHg 83%
08:00 +25°C° 0.3 mm 2 m/s 748 mmHg 78%
09:00 +26°C° 0.3 mm 2 m/s 748 mmHg 73%
10:00 +27°C° 0.3 mm 2 m/s 748 mmHg 69%
11:00 +28°C° 0.4 mm 2 m/s 748 mmHg 65%
12:00 +29°C° 0.4 mm 2 m/s 749 mmHg 61%
13:00 +30°C° 0.4 mm 1 m/s 749 mmHg 58%
14:00 +29°C° 0.7 mm 1 m/s 749 mmHg 59%
15:00 +29°C° 0.7 mm 1 m/s 749 mmHg 59%
16:00 +29°C° 0.7 mm 1 m/s 749 mmHg 60%
17:00 +28°C° 0.6 mm 1 m/s 749 mmHg 66%
18:00 +27°C° 0.6 mm 1 m/s 749 mmHg 72%
19:00 +26°C° 0.6 mm 2 m/s 750 mmHg 78%
20:00 +24°C° 0.1 mm 2 m/s 750 mmHg 83%
21:00 +23°C° 0.1 mm 2 m/s 750 mmHg 88%
22:00 +21°C° 0.1 mm 3 m/s 750 mmHg 92%
23:00 +20°C° 0 mm 3 m/s 750 mmHg 94%

23 Junho, Quarta-feira

Tempo Temperatura Precipitação Vento Pressão Humidade
00:00 +20°C° 0 mm 3 m/s 750 mmHg 95%
01:00 +19°C° 0 mm 2 m/s 750 mmHg 96%
02:00 +19°C° 0 mm 2 m/s 750 mmHg 96%
03:00 +19°C° 0 mm 2 m/s 750 mmHg 96%
04:00 +19°C° 0 mm 2 m/s 750 mmHg 96%
05:00 +20°C° 0 mm 2 m/s 751 mmHg 91%
06:00 +23°C° 0 mm 2 m/s 751 mmHg 87%
07:00 +24°C° 0 mm 2 m/s 751 mmHg 82%
08:00 +26°C° 0.1 mm 1 m/s 751 mmHg 76%
09:00 +27°C° 0.1 mm 1 m/s 751 mmHg 69%
10:00 +29°C° 0.1 mm 1 m/s 751 mmHg 63%
11:00 +30°C° 0.1 mm 1 m/s 751 mmHg 60%
12:00 +31°C° 0.1 mm 2 m/s 751 mmHg 56%
13:00 +31°C° 0.1 mm 2 m/s 751 mmHg 52%
14:00 +31°C° 0 mm 2 m/s 751 mmHg 56%
15:00 +30°C° 0 mm 2 m/s 751 mmHg 60%
16:00 +30°C° 0 mm 2 m/s 751 mmHg 64%
17:00 +29°C° 0 mm 2 m/s 751 mmHg 66%
18:00 +28°C° 0 mm 2 m/s 751 mmHg 68%
19:00 +28°C° 0 mm 2 m/s 751 mmHg 70%
20:00 +27°C° 0 mm 2 m/s 751 mmHg 73%
21:00 +25°C° 0 mm 2 m/s 751 mmHg 76%
22:00 +24°C° 0 mm 2 m/s 751 mmHg 79%
23:00 +24°C° 0 mm 2 m/s 751 mmHg 80%

24 Junho, Quinta-feira

Tempo Temperatura Precipitação Vento Pressão Humidade
00:00 +23°C° 0 mm 2 m/s 751 mmHg 80%
01:00 +23°C° 0 mm 2 m/s 751 mmHg 81%
02:00 +23°C° 0 mm 2 m/s 751 mmHg 82%
03:00 +23°C° 0 mm 2 m/s 751 mmHg 84%
04:00 +23°C° 0 mm 1 m/s 751 mmHg 85%
05:00 +24°C° 0.2 mm 1 m/s 751 mmHg 82%
06:00 +25°C° 0.2 mm 1 m/s 751 mmHg 78%
07:00 +26°C° 0.2 mm 2 m/s 751 mmHg 75%
08:00 +26°C° 1 mm 2 m/s 751 mmHg 78%
09:00 +26°C° 1 mm 3 m/s 751 mmHg 80%
10:00 +25°C° 1 mm 3 m/s 751 mmHg 83%
11:00 +25°C° 0.4 mm 3 m/s 751 mmHg 83%
12:00 +25°C° 0.4 mm 3 m/s 751 mmHg 83%
13:00 +25°C° 0.4 mm 2 m/s 751 mmHg 83%
14:00 +26°C° 0.2 mm 2 m/s 751 mmHg 77%
15:00 +27°C° 0.2 mm 1 m/s 751 mmHg 71%
16:00 +28°C° 0.2 mm 1 m/s 751 mmHg 64%
17:00 +27°C° 0 mm 1 m/s 750 mmHg 69%
18:00 +26°C° 0 mm 2 m/s 750 mmHg 74%
19:00 +25°C° 0 mm 2 m/s 750 mmHg 78%
20:00 +24°C° 0 mm 2 m/s 750 mmHg 82%
21:00 +23°C° 0 mm 1 m/s 750 mmHg 86%
22:00 +21°C° 0 mm 1 m/s 750 mmHg 90%
23:00 +21°C° 0 mm 1 m/s 750 mmHg 91%
Mostrar mais

Necessitamos do seu Consentimento

A Meteoprog e os seus Fornecedores de Serviços podem armazenar e aceder a dados pessoais como cookies, identificadores do dispositivo ou outras tecnologias semelhantes existentes no seu dispositivo e processar estes dados para personalizar conteúdos e anúncios, assim como funcionalidades nas redes sociais e análise de tráfego.

  • Armazenar e/ou aceder a informações no seu dispositivo

    Os cookies, identificadores do dispositivo ou outras informações podem ser armazenados ou acedidos no seu dispositivo, para os fins acima indicados.

  • Anúncios e conteúdos personalizados, medição de anúncios e conteúdos, dados sobre o público-alvo e desenvolvimento de produtos

    Os anúncios e os conteúdos podem ser personalizados com base num perfil. Podem ser adicionados dados adicionais para uma maior personalização dos anúncios e dos conteúdos. A eficácia dos anúncios e dos conteúdos pode ser medida. Podem ser obtidas informações sobre o público que visualizou os anúncios e os conteúdos. Estes dados podem ser usados para desenvolver ou melhorar sistemas, softwares ou a experiência do utilizador.

Ao clicar em "Eu concordo”, permitirá o uso de cookies, identificadores do dispositivo e web beacons mencionados ou outras tecnologias semelhantes. As configurações do navegador do seu dispositivo podem ser alteradas.

Para certos fins, podem ser invocados interesses legítimos ao invés de consentimento. Pode ler mais informação sobre este assunto na nossa Política de Privacidade e Cookies.